map of TRV home
Great Circle Mapper logo
TRV - Airport
Location
City:  Trivandrum, India
Name:Thiruvananthapuram International Airport
ICAO / IATA:VOTV / TRV

Details
Type:Airport (Aerodrome, Airfield)
Use:Public/Civil, International (customs port of entry)
Latitude:8°28'56"N (8.482122)
Longitude:76°55'12"E (76.920114)
Datum:WGS 1984
Elevation:15 ft (5 m)
Variation:2.3°W (WMM2010 magnetic declination)
Runways:1
Longest:11148 × 150 ft (3398 × 45.5 m), paved

Time
Time Zone:UTC+5:30
Local Time:

Weather
METAR:VOTV 280740Z 25004KT 4000 HZ SCT015 OVC090 29/23 Q1008 NOSIG
TAF:VOTV 280600Z 2809/2818 24005KT 5000 HZ SCT015 BKN090
TEMPO 2810/2815 2000 TSRA/RA SCT010 FEW025CB OVC080
BECMG 2816/2817 00000KT 4000 HZ

Related Locations
Nearby:
Farthest:SEII: 11462 mi / 18446 km
Puerto Villamil [General Villamil], Isabela Island, Galápagos Islands, EC

Find:

   beyond  
but within

Other Information
Maps:
NOTAMs:
Links:
Sources:

  
flag of India   

Sectional Chart

Flight Planning
at skyvector.com

Satellite Image

Google Maps Satellite View

 

Copyright © 2004-2014 Karl L. Swartz. All rights reserved.
The Great Circle Mapper name and logo are trademarks of the Great Circle Mapper.
All other trademarks mentioned herein belong to their respective owners.
Please see credits for attibutions and further copyright information.

  Follow gcmap on Facebook Follow gcmap on Twitter

hCard Microformat

Geo Microformat